Location: Berlin
(42.3812°N, 71.6370°W)
Time: 23:03:57
(UTC+00:00)

COSMO-SKYMED 1 - Pass Details

Date: 15 November 2025
Orbit: 579 x 581 km, 97.9° (Epoch: 09 December)

Event Time Altitude Azimuth Distance (km) Brightness Sun altitude
Rises 10:16:22 0° 169° (S) 2,789 6.2 -15.1°
Reaches altitude 10° 10:18:30 10° 170° (S) 1,894 5.3 -14.7°
Maximum altitude 10:22:37 79° 257° (WSW) 599 2.3 -14.0°
Drops below altitude 10° 10:26:45 10° 345° (NNW) 1,908 4.8 -13.2°
Sets 10:28:55 0° 346° (NNW) 2,811 5.7 -12.8°
